VBV097 GMTT-LEPA

Flight info

Callsign VBV097
Flight time N/A
Altitude FL240
Route BARP2D BARPA M985 PIMOS M445 RIXUR N851 IZA BITLO EDULI
Aircraft DH8D

Departure

Time N/A
Airport Tangier Ibn Battuta Airport (GMTT)

Arrival

Time 2026-05-05 19:20
Airport Palma de Mallorca Airport (LEPA)
Time Latitude Longitude Altitude Speed Heading
2026-05-05 18:45 38.79062 1.06471 23911 ft 392 kts 69°
2026-05-05 18:45 38.80061 1.09694 23911 ft 392 kts 69°
2026-05-05 18:45 38.81063 1.12937 23911 ft 392 kts 69°
2026-05-05 18:46 38.82061 1.16174 23911 ft 393 kts 69°
2026-05-05 18:46 38.83061 1.19416 23911 ft 393 kts 69°
2026-05-05 18:46 38.83846 1.22740 23907 ft 390 kts 83°
2026-05-05 18:46 38.83969 1.26178 23904 ft 383 kts 97°
2026-05-05 18:47 38.83795 1.29539 23546 ft 374 kts 100°
2026-05-05 18:47 38.83589 1.32823 23149 ft 369 kts 99°
2026-05-05 18:47 38.83391 1.36100 22728 ft 372 kts 99°
2026-05-05 18:47 38.83197 1.39409 22293 ft 374 kts 99°
2026-05-05 18:48 38.83009 1.42713 21852 ft 376 kts 99°
2026-05-05 18:48 38.82851 1.46061 21393 ft 379 kts 94°
2026-05-05 18:48 38.83133 1.49437 20911 ft 385 kts 80°
2026-05-05 18:48 38.83856 1.52726 20453 ft 384 kts 73°
2026-05-05 18:49 38.84681 1.55959 20015 ft 382 kts 73°
2026-05-05 18:49 38.85497 1.59180 19585 ft 380 kts 73°
2026-05-05 18:49 38.86297 1.62391 19161 ft 377 kts 74°
2026-05-05 18:49 38.87083 1.65576 18743 ft 375 kts 74°
2026-05-05 18:50 38.87861 1.68749 18328 ft 373 kts 74°
2026-05-05 18:50 38.88633 1.71903 17914 ft 370 kts 74°
2026-05-05 18:50 38.89370 1.74909 17519 ft 367 kts 74°
2026-05-05 18:50 38.90132 1.78016 17110 ft 365 kts 74°
2026-05-05 18:51 38.90888 1.81093 16705 ft 362 kts 74°
2026-05-05 18:51 38.91639 1.84152 16300 ft 359 kts 74°
2026-05-05 18:51 38.92384 1.87188 15897 ft 355 kts 74°
2026-05-05 18:51 38.93118 1.90186 15498 ft 352 kts 74°
2026-05-05 18:52 38.93848 1.93168 15098 ft 349 kts 74°
2026-05-05 18:52 38.94568 1.96114 14701 ft 346 kts 74°
2026-05-05 18:52 38.95279 1.99027 14307 ft 342 kts 74°
2026-05-05 18:52 38.95984 2.01922 13913 ft 339 kts 74°
2026-05-05 18:53 38.96681 2.04781 13520 ft 335 kts 74°
2026-05-05 18:53 38.97372 2.07619 13127 ft 332 kts 75°
2026-05-05 18:53 38.98053 2.10426 12736 ft 329 kts 75°
2026-05-05 18:53 38.98723 2.13196 12347 ft 325 kts 75°
2026-05-05 18:54 38.99389 2.15954 11957 ft 322 kts 75°
2026-05-05 18:54 39.00045 2.18683 11569 ft 319 kts 75°
2026-05-05 18:54 39.00693 2.21388 11181 ft 316 kts 75°
2026-05-05 18:54 39.01331 2.24068 10796 ft 313 kts 75°
2026-05-05 18:55 39.01960 2.26719 10413 ft 310 kts 75°
2026-05-05 18:55 39.02680 2.29303 10060 ft 306 kts 66°
2026-05-05 18:55 39.03726 2.31601 10116 ft 293 kts 55°
2026-05-05 18:55 39.04936 2.33655 10121 ft 285 kts 51°
2026-05-05 18:56 39.06155 2.35613 10117 ft 278 kts 51°
2026-05-05 18:56 39.07360 2.37541 10120 ft 275 kts 51°
2026-05-05 18:56 39.08543 2.39456 10119 ft 274 kts 51°
2026-05-05 18:56 39.09714 2.41375 10118 ft 272 kts 51°
2026-05-05 18:57 39.10868 2.43288 10118 ft 270 kts 52°
2026-05-05 18:57 39.12011 2.45198 10119 ft 270 kts 52°
2026-05-05 18:57 39.13124 2.47066 10119 ft 270 kts 52°
2026-05-05 18:57 39.14262 2.48979 10119 ft 270 kts 52°
2026-05-05 18:58 39.15417 2.50880 10118 ft 270 kts 48°
2026-05-05 18:58 39.16764 2.52541 10118 ft 269 kts 37°
2026-05-05 18:58 39.18277 2.53941 10119 ft 268 kts 31°
2026-05-05 18:58 39.19825 2.55260 10118 ft 268 kts 31°
2026-05-05 18:59 39.21384 2.56569 10118 ft 268 kts 31°
2026-05-05 18:59 39.22937 2.57877 10118 ft 268 kts 31°
2026-05-05 18:59 39.24488 2.59200 10117 ft 268 kts 32°
2026-05-05 18:59 39.25847 2.60838 10117 ft 270 kts 51°
2026-05-05 19:00 39.26895 2.62776 10119 ft 270 kts 57°
2026-05-05 19:00 39.27912 2.64806 10118 ft 270 kts 57°
2026-05-05 19:00 39.28931 2.66833 10118 ft 270 kts 57°
2026-05-05 19:00 39.29954 2.68864 10118 ft 270 kts 57°
2026-05-05 19:01 39.30977 2.70893 10117 ft 270 kts 57°
2026-05-05 19:01 39.32000 2.72923 10117 ft 270 kts 57°
2026-05-05 19:01 39.33025 2.74957 10117 ft 271 kts 57°
2026-05-05 19:01 39.34049 2.76991 10117 ft 271 kts 57°
2026-05-05 19:02 39.35072 2.79021 10117 ft 271 kts 57°
2026-05-05 19:02 39.36097 2.81057 10103 ft 268 kts 57°
2026-05-05 19:02 39.37079 2.83004 9745 ft 262 kts 57°
2026-05-05 19:02 39.38074 2.84954 9160 ft 262 kts 57°
2026-05-05 19:03 39.39077 2.86910 8590 ft 263 kts 57°
2026-05-05 19:03 39.40079 2.88866 8163 ft 261 kts 57°
2026-05-05 19:03 39.41066 2.90793 7766 ft 258 kts 57°
2026-05-05 19:03 39.42049 2.92711 7347 ft 256 kts 57°
2026-05-05 19:04 39.43027 2.94617 6937 ft 254 kts 57°
2026-05-05 19:04 39.43996 2.96502 6522 ft 252 kts 57°
2026-05-05 19:04 39.44959 2.98374 6113 ft 250 kts 57°
2026-05-05 19:04 39.45911 3.00220 5983 ft 244 kts 56°
2026-05-05 19:05 39.46850 3.02062 6034 ft 248 kts 57°
2026-05-05 19:05 39.47804 3.03950 6051 ft 253 kts 57°
2026-05-05 19:05 39.48771 3.05866 6058 ft 257 kts 57°
2026-05-05 19:05 39.49757 3.07821 6060 ft 261 kts 57°
2026-05-05 19:06 39.50748 3.09781 6057 ft 260 kts 57°
2026-05-05 19:06 39.51739 3.11731 6079 ft 258 kts 57°
2026-05-05 19:06 39.52701 3.13625 6118 ft 255 kts 57°
2026-05-05 19:06 39.53672 3.15535 6131 ft 254 kts 57°
2026-05-05 19:07 39.54869 3.17186 6131 ft 252 kts 31°
2026-05-05 19:07 39.56457 3.18081 6141 ft 248 kts 14°
2026-05-05 19:07 39.58116 3.18674 6141 ft 248 kts 12°
2026-05-05 19:07 39.59778 3.19250 6141 ft 248 kts 12°
2026-05-05 19:08 39.61439 3.19829 6141 ft 248 kts 12°
2026-05-05 19:08 39.63096 3.20409 6141 ft 248 kts 12°
2026-05-05 19:08 39.64754 3.20992 6141 ft 247 kts 12°
2026-05-05 19:08 39.66412 3.21576 6141 ft 247 kts 12°
2026-05-05 19:09 39.68072 3.22160 6141 ft 247 kts 12°
2026-05-05 19:09 39.69729 3.22728 6141 ft 247 kts 11°
2026-05-05 19:09 39.71371 3.23233 6139 ft 245 kts
2026-05-05 19:09 39.73029 3.23079 6137 ft 235 kts 335°
2026-05-05 19:10 39.74347 3.21930 5996 ft 227 kts 306°
2026-05-05 19:10 39.75005 3.20175 5617 ft 213 kts 275°
2026-05-05 19:10 39.74866 3.18334 5256 ft 204 kts 249°
2026-05-05 19:10 39.74301 3.16707 5084 ft 190 kts 242°
2026-05-05 19:11 39.73713 3.15255 5018 ft 174 kts 241°
2026-05-05 19:11 39.73159 3.13921 4989 ft 157 kts 240°
2026-05-05 19:11 39.72648 3.12722 4970 ft 140 kts 239°
2026-05-05 19:11 39.72186 3.11656 4926 ft 39 kts 237°
2026-05-05 19:12 39.72202 3.10651 2475 ft 249 kts 277°
2026-05-05 19:12 39.72535 3.08697 4086 ft 164 kts 274°
2026-05-05 19:12 39.72539 3.07557 5907 ft 111 kts 252°
2026-05-05 19:12 39.72126 3.06365 5504 ft 185 kts 239°
2026-05-05 19:13 39.71412 3.04737 4737 ft 228 kts 240°
2026-05-05 19:13 39.70638 3.02874 4248 ft 227 kts 241°
2026-05-05 19:13 39.69943 3.01193 4327 ft 208 kts 240°
2026-05-05 19:13 39.69227 2.99688 4316 ft 177 kts 236°
2026-05-05 19:14 39.68576 2.98458 4092 ft 161 kts 233°
2026-05-05 19:14 39.67847 2.97424 3799 ft 147 kts 221°
2026-05-05 19:14 39.67096 2.96649 3655 ft 133 kts 219°
2026-05-05 19:14 39.66395 2.95908 3537 ft 128 kts 221°
2026-05-05 19:15 39.65717 2.95109 3422 ft 135 kts 223°
2026-05-05 19:15 39.65026 2.94222 3270 ft 145 kts 225°
2026-05-05 19:15 39.64338 2.93267 3106 ft 143 kts 228°
2026-05-05 19:15 39.63676 2.92273 2927 ft 151 kts 229°
2026-05-05 19:16 39.62998 2.91184 2713 ft 160 kts 231°
2026-05-05 19:16 39.62312 2.90014 2485 ft 163 kts 233°
2026-05-05 19:16 39.61670 2.88858 2259 ft 155 kts 234°
2026-05-05 19:16 39.61065 2.87708 2057 ft 154 kts 235°
2026-05-05 19:17 39.60486 2.86559 1857 ft 152 kts 236°
2026-05-05 19:17 39.59925 2.85412 1655 ft 150 kts 237°
2026-05-05 19:17 39.59396 2.84306 1463 ft 147 kts 237°
2026-05-05 19:17 39.58884 2.83229 1263 ft 135 kts 237°
2026-05-05 19:18 39.58409 2.82223 1104 ft 130 kts 237°
2026-05-05 19:18 39.57923 2.81197 944 ft 138 kts 237°
2026-05-05 19:18 39.57408 2.80113 746 ft 144 kts 237°
2026-05-05 19:18 39.56882 2.79012 538 ft 140 kts 237°
2026-05-05 19:19 39.56396 2.77970 276 ft 131 kts 238°
2026-05-05 19:19 39.55918 2.76966 134 ft 130 kts 237°
2026-05-05 19:19 39.55453 2.75986 50 ft 124 kts 238°
2026-05-05 19:19 39.55073 2.75170 32 ft 67 kts 237°
2026-05-05 19:20 39.54963 2.74945 32 ft 15 kts 238°
2026-05-05 19:20 39.54908 2.74828 32 ft 15 kts 237°
2026-05-05 19:20 39.54858 2.74700 32 ft 18 kts 248°
2026-05-05 19:20 39.54813 2.74531 32 ft 22 kts 258°
2026-05-05 19:21 39.54802 2.74343 32 ft 15 kts 268°
2026-05-05 19:21 39.54801 2.74304 32 ft 2 kts 266°
2026-05-05 19:21 39.54799 2.74265 32 ft 1 kts 266°
2026-05-05 19:21 39.54798 2.74254 32 ft 4 kts 266°
2026-05-05 19:22 39.54797 2.74197 32 ft 9 kts 277°
2026-05-05 19:22 39.54804 2.74161 32 ft 1 kts 285°
2026-05-05 19:22 39.54806 2.74155 32 ft 1 kts 284°
2026-05-05 19:22 39.54798 2.74139 32 ft 4 kts 234°
2026-05-05 19:23 39.54769 2.74088 32 ft 10 kts 234°
2026-05-05 19:23 39.54723 2.73998 32 ft 14 kts 237°
2026-05-05 19:23 39.54666 2.73883 32 ft 17 kts 237°
2026-05-05 19:23 39.54654 2.73853 32 ft 1 kts 244°
2026-05-05 19:24 39.54642 2.73820 32 ft 7 kts 244°
2026-05-05 19:24 39.54634 2.73802 32 ft 0 kts 238°
2026-05-05 19:24 39.54633 2.73799 32 ft 2 kts 238°
2026-05-05 19:25 39.54609 2.73750 32 ft 12 kts 237°
2026-05-05 19:25 39.54547 2.73616 32 ft 23 kts 238°
2026-05-05 19:25 39.54455 2.73418 32 ft 27 kts 239°
2026-05-05 19:25 39.54389 2.73267 32 ft 1 kts 270°
2026-05-05 19:26 39.54397 2.73235 32 ft 7 kts 300°
2026-05-05 19:26 39.54410 2.73155 32 ft 12 kts 247°
2026-05-05 19:26 39.54360 2.73040 32 ft 17 kts 239°
2026-05-05 19:26 39.54374 2.72982 32 ft 9 kts 324°
2026-05-05 19:27 39.54394 2.72966 32 ft 0 kts 329°